Main page
METAR-TAF:

METAR-TAF

Airports :

Oil platform

K14-fa-1c, Netherlands

latitude: 53-16-10N, longitude: 3-37-40E, elevation: 28 m

Current weather observation

The report was made 38 minutes ago, at 05:55 UTC
Wind 17 kt from the West/Southwest
Temperature 16°C
Humidity 94%
Pressure 1012 hPa
Visibility 10 km or more
Few clouds at a height of 200 ft
Scattered clouds at a height of 300 ft
Broken clouds at a height of 400 ft

METAR: EHKV 190555Z AUTO 24017KT 9999 FEW002 SCT003 BKN004 16/15 Q1012

Time: 08:33 (06:33 UTC)


TAF: missing

Weather observations and forecasts of more than 4000 airports (METAR and TAF reports).

The available stations are represented by yellow and red dots on the map.

Hover mouse over dot to see the name of the station.

Then click to see weather observations and forecasts.

To change the map : click on the green buttons with a black cross to zoom in, on the green button with a dash to zoom out, or on the green arrows for adjacent maps.


METAR-TAF: